N3898R KSFB-

Flight info

Callsign N3898R
Flight time N/A
Altitude VFR/015
Route SOUTH
Aircraft C172/L-DOV/C

Departure

Time 2026-05-04 23:55
Airport Orlando Sanford International Airport (KSFB)

Arrival

Time N/A
Airport -
Time Latitude Longitude Altitude Speed Heading
2026-05-04 23:53 28.77853 -81.24524 59 ft 15 kts 130°
2026-05-04 23:54 28.77846 -81.24498 59 ft 0 kts 91°
2026-05-04 23:54 28.77846 -81.24493 59 ft 8 kts 89°
2026-05-04 23:54 28.77846 -81.24202 72 ft 59 kts 92°
2026-05-04 23:55 28.77847 -81.23695 214 ft 69 kts 89°
2026-05-04 23:55 28.77884 -81.23198 460 ft 63 kts 89°
2026-05-04 23:55 28.77896 -81.22404 861 ft 56 kts 93°
2026-05-04 23:56 28.77680 -81.22015 953 ft 74 kts 151°
2026-05-04 23:56 28.77188 -81.21922 1047 ft 86 kts 166°
2026-05-04 23:56 28.76662 -81.21861 1238 ft 83 kts 167°
2026-05-04 23:56 28.76189 -81.21809 1423 ft 80 kts 167°
2026-05-04 23:57 28.75683 -81.21752 1508 ft 91 kts 168°
2026-05-04 23:57 28.75135 -81.21680 1498 ft 100 kts 168°
2026-05-04 23:57 28.74518 -81.21597 1492 ft 103 kts 168°
2026-05-04 23:57 28.73942 -81.21520 1490 ft 104 kts 168°
2026-05-04 23:58 28.73269 -81.21434 1489 ft 104 kts 171°
2026-05-04 23:58 28.72607 -81.21461 1489 ft 104 kts 178°
2026-05-04 23:58 28.72028 -81.21515 1489 ft 104 kts 179°
2026-05-04 23:58 28.71456 -81.21571 1489 ft 104 kts 179°
2026-05-04 23:59 28.70876 -81.21641 1489 ft 105 kts 183°
2026-05-04 23:59 28.70365 -81.21891 1487 ft 109 kts 210°
2026-05-04 23:59 28.69846 -81.22374 1489 ft 110 kts 215°
2026-05-04 23:59 28.69409 -81.22813 1489 ft 110 kts 216°
2026-05-05 00:00 28.68874 -81.23356 1489 ft 110 kts 216°
2026-05-05 00:00 28.68722 -81.23510 1489 ft 110 kts 216°
2026-05-05 00:00 28.68087 -81.24155 1490 ft 110 kts 216°
2026-05-05 00:00 28.67669 -81.24581 1490 ft 110 kts 216°
2026-05-05 00:01 28.67120 -81.25140 1490 ft 110 kts 216°
2026-05-05 00:01 28.66594 -81.25674 1490 ft 110 kts 216°
2026-05-05 00:01 28.65997 -81.26223 1490 ft 110 kts 212°
2026-05-05 00:01 28.65394 -81.26759 1490 ft 109 kts 212°
2026-05-05 00:02 28.64843 -81.27249 1490 ft 109 kts 212°
2026-05-05 00:02 28.64377 -81.27663 1490 ft 109 kts 212°
2026-05-05 00:02 28.63875 -81.28109 1490 ft 109 kts 212°
2026-05-05 00:02 28.63354 -81.28574 1489 ft 109 kts 211°
2026-05-05 00:03 28.62778 -81.28945 1490 ft 107 kts 200°
2026-05-05 00:03 28.62138 -81.29297 1490 ft 107 kts 200°
2026-05-05 00:03 28.61453 -81.29675 1435 ft 109 kts 201°
2026-05-05 00:03 28.60901 -81.29980 1325 ft 103 kts 199°
2026-05-05 00:04 28.60365 -81.30283 1249 ft 104 kts 200°
2026-05-05 00:04 28.59870 -81.30573 1195 ft 103 kts 200°
2026-05-05 00:04 28.59302 -81.30904 1115 ft 104 kts 199°
2026-05-05 00:04 28.58754 -81.31220 1103 ft 100 kts 200°
2026-05-05 00:05 28.58224 -81.31529 1049 ft 101 kts 200°
2026-05-05 00:05 28.57724 -81.31769 1098 ft 90 kts 189°
2026-05-05 00:05 28.57253 -81.31967 1014 ft 101 kts 197°
2026-05-05 00:05 28.56810 -81.32265 1019 ft 103 kts 210°
2026-05-05 00:06 28.56444 -81.32758 1013 ft 110 kts 239°
2026-05-05 00:06 28.56239 -81.33373 978 ft 110 kts 245°
2026-05-05 00:06 28.56014 -81.34091 963 ft 107 kts 246°
2026-05-05 00:06 28.55784 -81.34755 966 ft 108 kts 237°
2026-05-05 00:07 28.55477 -81.35416 933 ft 96 kts 237°
2026-05-05 00:07 28.55254 -81.35883 851 ft 89 kts 226°
2026-05-05 00:07 28.54872 -81.36088 748 ft 71 kts 162°
2026-05-05 00:07 28.54521 -81.35915 654 ft 68 kts 146°
2026-05-05 00:08 28.54196 -81.35709 560 ft 69 kts 138°
2026-05-05 00:08 28.53946 -81.35387 431 ft 63 kts 116°
2026-05-05 00:08 28.53908 -81.35031 384 ft 56 kts 81°
2026-05-05 00:08 28.54017 -81.34664 323 ft 57 kts 72°
2026-05-05 00:09 28.54163 -81.34260 246 ft 54 kts 75°
2026-05-05 00:09 28.54308 -81.33876 158 ft 54 kts 70°
2026-05-05 00:09 28.54419 -81.33581 105 ft 45 kts 71°
2026-05-05 00:09 28.54497 -81.33396 105 ft 19 kts 46°
2026-05-05 00:10 28.54583 -81.33319 105 ft 17 kts 38°
2026-05-05 00:10 28.54612 -81.33295 106 ft 0 kts 38°
2026-05-05 00:11 28.54642 -81.33273 106 ft 6 kts 21°
2026-05-05 00:11 28.54684 -81.33285 107 ft 14 kts 326°
2026-05-05 00:11 28.54703 -81.33399 105 ft 19 kts 267°
2026-05-05 00:12 28.54697 -81.33536 105 ft 16 kts 300°
2026-05-05 00:12 28.54767 -81.33529 106 ft 14 kts 33°
2026-05-05 00:12 28.54837 -81.33471 106 ft 15 kts 15°
2026-05-05 00:12 28.54880 -81.33513 106 ft 3 kts 195°
2026-05-05 00:13 28.54871 -81.33520 106 ft 0 kts 221°
2026-05-05 00:19 28.54856 -81.33526 106 ft 8 kts 161°
2026-05-05 00:19 28.54798 -81.33503 105 ft 14 kts 206°
2026-05-05 00:19 28.54737 -81.33562 105 ft 2 kts 260°
2026-05-05 00:21 28.54722 -81.33585 106 ft 10 kts 207°
2026-05-05 00:22 28.54658 -81.33642 106 ft 17 kts 214°
2026-05-05 00:22 28.54587 -81.33608 105 ft 14 kts 156°
2026-05-05 00:22 28.54534 -81.33651 103 ft 18 kts 247°
2026-05-05 00:22 28.54486 -81.33788 102 ft 29 kts 245°
2026-05-05 00:23 28.54431 -81.33913 102 ft 19 kts 226°
2026-05-05 00:23 28.54372 -81.33911 102 ft 5 kts 156°
2026-05-05 00:23 28.54370 -81.33910 102 ft 0 kts 155°
2026-05-05 00:23 28.54369 -81.33910 102 ft 0 kts 157°
2026-05-05 00:24 28.54333 -81.33888 102 ft 14 kts 135°
2026-05-05 00:24 28.54337 -81.33787 102 ft 16 kts 66°
2026-05-05 00:24 28.54349 -81.33754 102 ft 4 kts 66°
2026-05-05 00:24 28.54433 -81.33529 104 ft 58 kts 67°
2026-05-05 00:25 28.54587 -81.33127 247 ft 66 kts 68°
2026-05-05 00:25 28.54724 -81.32787 373 ft 70 kts 68°
2026-05-05 00:25 28.54949 -81.32342 562 ft 71 kts 49°
2026-05-05 00:25 28.55351 -81.32166 753 ft 79 kts
2026-05-05 00:26 28.55844 -81.32414 860 ft 93 kts 316°
2026-05-05 00:26 28.56011 -81.33025 955 ft 101 kts 257°
2026-05-05 00:26 28.55830 -81.33662 1036 ft 103 kts 246°
2026-05-05 00:26 28.55772 -81.34293 1092 ft 99 kts 292°
2026-05-05 00:27 28.56143 -81.34660 1069 ft 98 kts 352°
2026-05-05 00:27 28.56598 -81.34578 1081 ft 89 kts 43°
2026-05-05 00:27 28.56746 -81.34152 1079 ft 84 kts 96°
2026-05-05 00:27 28.56599 -81.33708 1124 ft 82 kts 127°
2026-05-05 00:28 28.56270 -81.33534 1110 ft 91 kts 176°
2026-05-05 00:28 28.55893 -81.33781 1065 ft 105 kts 232°
2026-05-05 00:28 28.55715 -81.34281 1045 ft 109 kts 246°
2026-05-05 00:28 28.55545 -81.34787 1099 ft 103 kts 245°
2026-05-05 00:29 28.55380 -81.35264 1120 ft 103 kts 250°
2026-05-05 00:29 28.55386 -81.35772 1170 ft 100 kts 269°
2026-05-05 00:29 28.55219 -81.36208 1117 ft 105 kts 227°
2026-05-05 00:29 28.54917 -81.36606 1049 ft 106 kts 227°
2026-05-05 00:30 28.54742 -81.37075 1054 ft 102 kts 267°
2026-05-05 00:30 28.54974 -81.37583 1051 ft 98 kts 324°
2026-05-05 00:30 28.55341 -81.37682 1067 ft 85 kts 46°
2026-05-05 00:30 28.55277 -81.37278 992 ft 89 kts 137°
2026-05-05 00:31 28.54864 -81.37259 955 ft 100 kts 202°
2026-05-05 00:31 28.54574 -81.37733 942 ft 106 kts 261°
2026-05-05 00:31 28.54378 -81.38245 996 ft 94 kts 209°
2026-05-05 00:31 28.53955 -81.38287 991 ft 88 kts 149°
2026-05-05 00:32 28.53590 -81.37966 981 ft 92 kts 135°
2026-05-05 00:32 28.53186 -81.37514 947 ft 98 kts 118°
2026-05-05 00:32 28.53210 -81.36822 771 ft 102 kts 70°
2026-05-05 00:32 28.53433 -81.36259 701 ft 80 kts 68°
2026-05-05 00:33 28.53603 -81.35782 634 ft 70 kts 71°
2026-05-05 00:33 28.53762 -81.35346 526 ft 64 kts 70°
2026-05-05 00:33 28.53902 -81.34985 438 ft 56 kts 69°
2026-05-05 00:33 28.54047 -81.34600 320 ft 56 kts 71°
2026-05-05 00:34 28.54185 -81.34212 233 ft 53 kts 71°
2026-05-05 00:34 28.54313 -81.33850 131 ft 53 kts 71°
2026-05-05 00:34 28.54433 -81.33534 104 ft 47 kts 68°
2026-05-05 00:34 28.54609 -81.33051 216 ft 66 kts 68°
2026-05-05 00:35 28.54844 -81.32558 446 ft 66 kts 65°
2026-05-05 00:35 28.55054 -81.32084 675 ft 64 kts 69°
2026-05-05 00:35 28.55226 -81.31628 825 ft 70 kts 71°
2026-05-05 00:35 28.55377 -81.31152 963 ft 74 kts 81°
2026-05-05 00:36 28.55383 -81.30533 1029 ft 87 kts 95°
2026-05-05 00:36 28.55320 -81.29816 1025 ft 92 kts 96°
2026-05-05 00:36 28.55285 -81.29408 1023 ft 92 kts 96°
2026-05-05 00:36 28.55252 -81.29032 1022 ft 92 kts 96°
2026-05-05 00:37 28.55222 -81.28691 1022 ft 93 kts 96°
2026-05-05 00:37 28.55173 -81.28139 1024 ft 97 kts 96°
2026-05-05 00:37 28.55106 -81.27384 1024 ft 100 kts 96°
2026-05-05 00:37 28.55035 -81.26603 1022 ft 100 kts 96°
2026-05-05 00:38 28.54978 -81.25979 1022 ft 100 kts 96°